Location: Frankfurt+(oder)
(51.7984°N, 12.2168°E)
Time: 14:48:17
(UTC+02:00)

ISS - Pass Details

Date: 30 March 2017
Orbit: 399 x 409 km, 51.6° (Epoch: 30 March)

Event Time Altitude Azimuth Distance (km) Brightness Sun altitude
Rises 22:24:37 0° 259° (W) 2,315 0.5 -23.4°
Reaches altitude 10° 22:26:42 10° 258° (WSW) 1,458 -0.6 -23.6°
Enters shadow 22:28:01 22° 257° (WSW) 932 -1.7 -23.8°
